Theta_e
356 358 358 352 337 329 320 322 329 325 328 335 336 334 333 338 332 326 350 352 352 353 357 359 367 369 366 368 366 365 363 362 363 362 362 363 363 362 361 361 361 360 361 361 363 364 362 362 362
358 355 355 344 324 318 320 327 326 329 334 338 338 335 333 334 342 343 347 352 353 354 356 358 366 368 368 368 368 367 364 363 363 363 362 362 362 361 360 360 360 360 360 360 360 362 364 361 360
356 356 344 335 325 320 322 328 329 334 337 335 334 339 338 336 342 344 352 353 351 353 357 364 367 369 370 368 368 366 366 365 364 363 362 361 360 360 359 358 359 359 360 360 360 361 362 363 361
349 351 345 328 324 329 328 331 333 332 336 336 337 335 342 347 344 348 353 353 350 351 355 364 367 366 367 366 366 364 363 362 362 362 361 360 359 358 359 360 360 360 360 361 361 360 361 362 363
351 345 331 326 326 330 333 336 337 331 334 334 337 333 337 345 350 350 352 351 348 352 358 360 367 367 366 366 365 364 362 361 361 361 361 360 360 360 359 358 359 359 358 358 359 358 359 359 361
337 337 323 320 324 329 333 336 334 334 335 335 336 336 338 349 347 348 351 350 349 353 356 359 365 366 364 364 362 362 361 360 359 359 358 357 358 358 357 357 359 358 359 358 358 357 357 358 359
331 329 322 324 324 327 331 336 333 333 333 333 338 334 339 343 348 349 350 349 350 352 356 354 358 361 363 363 362 361 360 358 357 357 356 357 358 359 358 357 358 359 358 357 357 357 356 356 358
337 329 322 324 321 323 331 334 336 335 335 342 342 334 335 344 348 348 350 349 350 352 354 355 354 356 361 359 361 358 358 358 357 356 358 359 361 361 361 359 359 358 357 355 356 357 356 356 356
339 322 320 321 321 324 333 331 338 340 337 340 342 340 345 347 348 346 346 348 349 350 348 350 352 354 360 358 358 358 355 351 352 350 355 359 356 356 359 361 358 358 357 357 356 358 356 358 358
328 322 322 326 325 326 330 332 333 334 335 337 341 347 348 346 345 343 343 342 345 347 347 353 352 351 355 353 352 352 346 346 346 347 345 355 356 353 356 357 360 356 355 356 358 358 358 357 354
328 322 326 327 331 331 331 332 335 332 328 338 339 343 345 343 344 343 342 342 344 346 347 351 351 357 356 348 346 346 346 343 342 342 345 350 358 356 355 358 356 355 356 359 356 357 355 352 352
323 326 328 329 332 331 331 335 333 334 333 342 345 345 343 342 342 342 342 342 343 346 348 350 352 355 358 353 342 343 340 337 338 339 346 352 355 355 358 360 358 353 361 356 358 352 355 350 352
323 324 326 328 330 331 333 332 333 334 338 344 345 343 341 341 341 342 342 343 345 345 348 349 351 357 359 354 346 340 345 341 342 347 351 352 356 352 356 359 357 362 360 354 356 357 353 357 351
323 323 323 326 327 329 329 332 336 337 340 341 342 340 340 341 341 343 342 342 346 348 349 352 353 357 357 358 355 351 354 355 354 358 359 358 355 360 353 356 355 356 356 360 357 355 354 348 348
323 321 324 324 325 326 330 327 330 339 340 339 339 340 339 341 343 343 345 345 347 349 351 354 355 357 360 359 359 354 352 357 361 351 350 357 361 360 362 357 352 355 360 357 358 355 353 352 352
320 320 316 322 323 326 326 319 334 340 338 336 338 338 339 341 342 345 346 346 349 350 352 355 354 355 357 358 356 350 353 353 356 359 356 355 356 360 363 357 352 355 355 358 351 351 349 351 352
317 311 314 317 323 322 323 320 332 338 337 334 337 339 339 341 344 348 348 351 349 353 355 355 356 354 358 360 359 356 356 355 354 358 355 359 355 356 360 353 361 361 356 357 354 353 357 350 349
311 313 314 314 319 321 320 321 329 336 335 335 336 338 339 340 342 348 349 351 353 354 356 358 357 359 361 359 359 357 353 356 359 358 356 359 355 356 364 360 362 359 357 356 355 360 354 352 351
315 314 312 315 318 316 319 321 327 331 333 334 336 337 338 340 344 348 349 350 352 354 356 358 358 362 359 356 362 353 353 357 357 356 360 359 358 357 358 355 357 365 357 362 358 358 355 352 354
315 313 313 316 317 317 318 318 325 331 330 333 335 337 338 340 343 346 349 350 351 354 356 359 361 362 362 358 357 359 358 355 357 357 360 360 360 360 360 362 359 359 361 360 361 360 358 348 354
316 313 312 312 316 318 317 315 318 323 330 332 335 338 339 340 342 346 348 349 351 353 356 358 362 363 364 364 359 359 360 359 366 360 357 360 360 360 362 362 361 359 359 354 362 358 356 349 350
311 316 313 312 312 308 316 306 318 322 325 329 332 336 337 340 343 346 347 348 350 352 357 360 363 364 364 366 363 363 364 354 365 355 356 357 363 362 361 362 359 361 357 364 359 356 358 357 349
313 315 313 313 312 312 313 309 314 322 321 326 330 334 336 339 342 344 346 348 350 354 355 358 364 367 366 366 366 359 360 357 355 355 365 364 363 363 359 362 363 363 357 361 361 360 364 354 346
317 314 314 314 312 306 310 309 314 317 323 326 331 334 336 338 341 344 347 349 349 353 355 358 363 366 368 366 366 365 364 360 357 361 353 354 356 356 363 361 364 368 364 362 359 363 360 359 346
315 312 305 304 304 304 314 311 316 317 329 331 333 334 336 338 341 342 344 346 349 351 353 356 361 364 366 365 365 365 365 364 364 366 356 361 352 354 360 364 368 362 366 362 367 367 363 364 353
314 311 306 301 304 303 316 309 315 326 334 335 336 336 335 336 340 342 344 348 350 352 354 355 359 363 365 365 366 367 369 362 360 363 362 358 358 359 359 361 363 363 362 361 365 365 357 361 357
313 309 315 309 311 306 310 318 327 331 332 334 336 337 336 337 340 343 347 350 353 353 355 356 359 362 364 363 365 368 368 366 364 364 364 359 360 354 362 362 362 364 363 365 366 358 361 361 358
315 318 308 310 303 303 308 306 315 323 326 333 335 337 340 343 345 347 348 350 351 352 354 357 358 360 362 362 362 362 362 365 364 364 362 358 357 358 361 362 363 363 366 364 367 359 362 361 356
312 311 313 313 310 306 303 305 321 319 330 333 337 339 340 342 345 347 350 351 352 354 354 354 356 360 359 361 361 361 359 360 361 358 354 358 359 360 360 361 362 361 365 366 367 364 363 358 359
317 315 315 309 307 311 310 310 318 329 335 337 339 341 342 343 344 347 350 353 355 355 358 358 358 357 358 361 360 354 354 355 353 355 357 361 358 359 361 363 362 361 361 366 365 362 361 361 359
Wind_Speed
12 14 10 6 6 5 8 13 16 9 15 15 7 12 14 16 12 9 23 18 21 20 17 15 15 16 16 15 13 14 14 13 11 11 10 10 10 10 11 10 10 9 10 9 8 10 11 11 11
14 3 7 8 4 2 9 7 8 14 14 11 12 5 14 16 8 21 19 22 21 19 18 17 14 15 15 15 14 13 14 12 10 9 9 8 8 7 7 8 6 6 7 7 7 7 10 10 11
13 6 9 5 5 7 7 15 9 10 12 10 4 13 11 8 16 15 20 22 21 18 19 18 14 15 16 16 14 13 11 11 10 9 8 7 6 5 5 5 4 5 6 7 7 8 7 10 10
6 7 6 6 9 15 8 9 14 12 13 8 5 17 11 7 16 17 21 20 19 18 20 16 15 15 16 15 14 13 11 11 10 8 7 6 5 4 4 5 5 4 3 6 7 6 6 7 10
8 5 1 6 12 11 7 10 9 8 4 5 10 17 10 5 12 20 20 18 18 19 20 17 13 13 14 14 13 12 11 9 8 7 6 5 4 3 3 4 5 5 4 3 5 5 5 4 7
8 4 3 12 8 6 8 4 6 11 5 11 14 15 11 12 18 19 18 17 16 20 19 15 14 14 13 13 12 10 9 7 6 4 3 2 1 3 4 5 6 5 5 4 3 4 4 4 6
2 4 7 12 7 10 10 4 5 7 11 8 19 16 14 16 18 17 16 14 14 14 19 11 14 11 13 12 11 8 7 4 2 2 2 3 4 6 6 6 5 5 5 4 4 4 4 4 5
5 10 11 7 7 11 6 12 4 8 11 6 9 8 14 18 18 16 16 16 17 16 17 14 14 11 12 11 12 10 9 7 5 3 5 7 10 12 12 10 8 6 5 5 4 4 4 5 5
5 7 8 13 10 11 5 12 9 1 8 9 3 12 21 19 20 16 14 14 14 15 14 15 14 14 13 7 9 10 9 7 8 7 9 11 10 3 13 14 13 7 5 5 5 6 6 6 8
3 11 10 13 14 12 9 11 5 6 11 10 8 16 20 20 19 18 17 14 14 15 15 11 11 13 14 7 8 6 3 1 4 6 8 9 5 5 4 7 10 5 5 6 7 7 8 11 9
10 8 13 15 10 13 8 12 3 3 9 16 12 16 18 19 17 16 15 16 15 13 9 12 12 11 12 7 7 3 2 2 4 9 9 11 9 6 6 4 4 1 8 6 10 10 9 12 3
13 6 11 12 2 8 11 3 13 12 7 15 16 17 16 18 17 16 14 13 13 12 12 13 14 12 14 9 5 4 4 4 5 6 8 9 7 7 4 3 5 2 3 8 7 6 4 10 2
10 9 5 5 5 7 5 8 9 10 11 16 18 16 17 16 15 13 12 14 13 12 14 10 13 8 11 7 7 5 7 7 8 8 11 10 9 8 7 4 1 6 2 4 5 1 5 3 8
5 4 3 3 8 9 7 8 10 10 13 16 16 15 15 17 15 14 12 11 11 10 13 14 14 13 11 10 8 8 4 8 6 7 6 11 8 2 7 4 3 7 5 1 4 4 4 6 8
6 10 9 5 4 11 2 10 18 13 14 16 16 15 14 14 13 13 13 13 11 11 10 9 16 14 13 12 10 8 8 8 7 8 14 17 4 3 4 2 2 7 3 4 5 4 5 5 4
8 9 10 10 3 7 1 12 14 14 13 16 15 13 13 13 15 12 12 9 13 11 12 12 10 13 15 13 11 10 8 6 6 4 5 9 7 5 4 2 2 5 8 4 7 7 7 5 1
8 7 8 11 2 2 2 13 14 15 12 14 14 15 12 12 14 13 14 8 12 12 11 9 8 10 11 10 11 10 10 7 7 5 6 7 8 9 5 4 5 6 6 4 4 2 2 4 5
6 6 6 5 10 5 6 16 16 15 14 13 14 15 13 13 13 15 14 16 9 11 11 10 9 7 7 7 6 6 8 7 6 5 5 7 8 8 5 4 4 4 4 4 4 6 2 6 5
3 7 0 5 5 4 7 9 16 16 14 15 13 14 14 14 14 15 13 13 14 12 13 13 12 11 9 8 5 6 4 4 5 6 10 5 7 7 7 7 5 4 4 3 4 1 5 5 5
6 6 10 9 3 7 5 7 16 17 13 17 14 15 14 14 15 14 14 14 14 14 13 12 12 11 10 9 7 5 4 3 5 5 4 7 9 10 9 8 7 6 3 5 5 6 3 6 6
12 12 4 7 9 11 7 12 10 7 14 13 17 15 15 14 14 14 14 14 13 14 14 13 13 12 11 10 7 6 6 4 3 4 8 10 11 10 10 9 7 5 4 5 6 7 5 4 2
10 3 1 4 11 14 18 3 9 14 14 16 16 15 17 15 14 14 15 14 15 13 14 13 13 12 12 11 9 9 4 6 4 7 8 5 10 10 10 8 8 8 7 6 8 7 4 3 3
3 3 1 8 12 13 14 10 4 14 15 17 16 15 13 16 15 17 15 14 13 13 13 12 12 12 11 12 11 8 9 7 7 7 6 6 3 7 8 9 10 9 8 9 8 1 6 4 2
6 8 10 12 13 14 14 15 15 3 16 14 8 10 14 18 17 14 14 15 12 12 12 12 13 11 12 12 13 13 8 8 6 2 5 7 7 7 11 10 9 8 9 9 8 7 7 9 6
10 15 12 13 13 11 3 8 11 17 6 13 9 10 13 13 17 15 15 14 12 14 12 11 13 12 12 12 12 11 11 9 7 5 8 6 5 6 10 9 8 7 9 8 8 8 8 10 10
14 16 14 6 5 11 14 8 5 23 11 9 7 7 10 18 17 16 15 13 12 12 12 11 13 11 11 11 11 9 7 8 7 7 6 7 6 2 5 8 10 8 9 11 10 7 10 11 11
14 7 19 16 13 10 12 16 16 15 15 13 13 10 10 10 11 11 10 8 7 9 11 11 10 10 10 11 8 6 6 6 8 6 6 6 6 8 11 8 8 9 10 10 9 9 10 8 9
18 11 14 10 1 12 9 3 11 9 11 14 13 13 12 9 9 9 10 11 12 11 10 9 9 8 8 7 7 7 6 7 7 6 6 8 9 10 10 8 11 10 10 12 10 7 11 10 9
10 11 12 1 7 10 4 8 10 24 20 15 14 14 15 15 12 9 7 7 7 7 6 6 6 7 6 6 4 3 5 5 5 5 7 7 8 9 9 10 9 11 11 10 10 12 11 12 9
9 10 13 8 7 13 11 6 5 6 16 17 14 14 13 14 13 12 11 11 11 11 9 8 8 7 8 7 6 6 4 2 6 9 7 4 6 8 9 10 11 10 11 10 12 13 14 14 14
Wind_Direction
222 214 235 256 253 157 81 76 53 77 82 79 77 62 80 46 43 92 136 136 139 134 132 151 144 143 141 134 137 135 135 134 133 130 122 111 104 101 99 97 98 104 110 111 108 118 113 113 113
274 290 231 276 40 52 90 61 93 64 72 96 72 310 79 66 83 126 136 131 140 131 148 141 146 144 143 139 140 137 136 136 134 134 125 119 111 107 105 108 113 118 121 122 119 112 124 122 125
261 273 270 290 86 47 85 83 74 85 78 41 45 37 30 75 121 127 129 143 137 141 137 119 144 148 145 143 142 136 134 131 129 131 129 123 119 118 119 127 144 162 158 149 144 135 136 137 138
279 208 224 147 78 90 72 71 94 44 42 72 357 99 90 146 136 119 141 152 134 148 121 129 140 144 143 143 139 136 132 130 129 129 124 125 134 153 169 176 179 180 177 168 154 146 156 158 151
226 236 307 88 87 86 77 64 32 83 99 111 85 74 97 71 114 133 149 139 157 116 124 137 140 141 138 136 134 133 134 135 136 138 140 144 166 174 168 184 181 186 184 179 159 163 157 158 162
253 247 204 91 94 94 84 43 26 111 94 100 117 89 96 148 131 144 157 152 146 128 136 128 140 140 135 132 134 132 133 133 132 128 127 142 196 214 200 198 180 179 169 170 148 156 163 171 169
309 60 56 81 110 73 73 139 58 89 80 102 108 101 119 140 140 152 147 150 132 101 108 148 155 142 135 132 126 119 108 106 103 142 185 219 222 230 198 201 184 183 181 171 158 147 164 165 171
272 95 61 62 95 84 92 75 62 94 76 97 85 134 155 144 152 157 150 146 128 135 140 164 155 151 145 142 127 114 75 57 27 351 297 271 240 218 193 188 184 180 181 184 180 162 165 173 159
241 107 95 66 90 105 169 92 63 90 117 65 58 131 147 146 156 160 153 154 151 136 154 163 158 180 140 84 105 98 84 32 14 357 335 289 258 222 215 168 154 181 184 198 190 179 185 188 177
156 74 61 88 93 98 79 70 103 130 133 122 105 103 144 155 162 163 162 163 154 161 152 156 163 148 119 138 138 125 155 225 309 313 305 297 328 294 159 136 134 154 195 199 205 190 202 214 199
66 97 109 74 61 90 113 90 41 42 49 138 143 138 149 157 172 167 169 167 160 167 144 162 154 132 137 141 157 138 148 139 281 285 300 285 303 285 294 96 102 149 204 213 193 187 217 215 156
108 72 73 105 141 113 75 136 70 46 39 111 134 147 150 159 174 171 173 159 148 156 140 166 150 170 161 176 146 182 188 198 224 257 266 264 285 274 172 88 156 252 231 207 191 241 158 219 43
91 102 149 86 142 84 126 62 84 76 94 113 139 143 153 160 168 169 171 152 154 147 145 185 145 158 168 180 161 184 212 212 218 232 240 244 252 275 114 110 25 247 231 261 239 86 257 177 266
90 91 103 152 120 117 136 129 129 105 108 127 136 148 161 150 169 153 162 162 159 156 154 147 153 161 180 184 161 187 197 223 223 256 263 239 228 225 80 123 188 272 190 198 166 232 265 217 230
152 187 164 93 136 132 87 134 102 127 129 138 147 154 153 155 154 157 160 162 161 161 148 161 152 162 169 173 178 200 206 178 199 226 238 223 263 353 20 124 237 245 204 207 239 203 254 243 281
232 233 148 106 179 119 334 106 131 148 147 146 150 153 156 154 155 147 161 166 146 158 164 173 177 165 169 158 176 188 210 230 198 281 231 196 240 212 231 187 231 262 255 219 222 210 207 244 40
204 247 85 130 203 124 235 121 146 161 171 145 159 156 171 167 172 163 170 188 157 155 155 189 186 179 161 169 181 199 161 199 249 189 236 196 198 228 195 209 248 205 240 218 263 113 54 265 244
300 118 167 114 136 223 221 133 150 174 185 160 160 159 174 173 186 167 183 164 192 163 162 182 180 188 175 175 221 222 218 195 193 218 243 177 212 215 193 209 217 249 248 322 279 107 215 274 248
356 296 20 135 103 254 254 154 158 166 190 158 175 163 171 179 171 160 188 173 181 175 181 178 190 175 186 198 180 228 212 231 185 182 215 193 234 215 224 241 193 207 225 274 284 211 198 252 290
268 231 220 144 160 263 166 249 144 163 192 167 189 169 168 179 156 165 179 186 187 182 190 186 192 188 199 196 218 183 206 197 204 226 228 229 223 225 219 227 207 204 218 229 234 209 196 261 240
228 254 31 320 183 219 238 231 156 185 173 188 178 183 171 175 162 170 180 188 187 179 189 186 191 189 201 224 214 211 255 245 227 206 212 205 218 233 239 216 229 198 208 230 232 210 195 246 327
283 67 332 251 257 233 205 142 204 164 173 181 188 195 176 168 179 173 181 191 186 184 185 190 189 196 197 207 224 225 207 232 198 222 216 254 198 225 214 240 214 214 223 209 232 191 219 115 348
77 336 224 275 273 269 204 208 232 158 162 176 190 181 199 175 182 171 186 183 187 178 180 185 187 194 214 200 234 222 219 212 233 216 137 212 232 231 248 212 212 221 221 208 252 262 156 134 143
4 258 221 229 245 257 234 231 188 301 151 158 163 181 193 178 177 184 177 167 181 167 181 183 181 195 200 208 210 237 255 249 287 209 255 229 198 211 208 228 216 212 234 255 211 184 225 178 193
232 250 243 220 213 237 302 227 135 263 163 149 163 189 203 200 171 182 174 170 177 166 181 181 180 193 201 211 218 220 241 254 275 291 264 267 256 198 177 210 222 209 226 251 257 206 210 187 200
210 237 261 263 282 330 190 189 126 212 128 132 143 148 184 189 172 177 176 175 175 167 180 191 178 190 196 207 217 228 227 241 233 219 252 290 319 260 310 187 223 219 215 217 221 231 220 201 207
256 257 276 301 151 215 262 111 132 137 135 138 127 129 140 162 149 160 160 147 158 188 180 198 187 191 203 200 209 203 214 245 277 278 290 275 275 280 285 267 258 213 226 232 222 223 244 242 217
267 322 223 243 46 296 48 212 117 111 138 135 137 128 123 120 127 150 168 169 185 186 181 190 178 191 195 207 182 208 209 208 245 245 262 292 293 295 270 289 285 254 231 229 217 225 225 237 230
193 234 248 167 314 271 66 301 159 161 185 149 133 137 142 142 131 121 120 128 123 91 113 137 174 142 170 147 108 127 202 228 221 239 258 273 289 289 277 264 252 273 264 249 233 229 246 208 234
299 330 286 292 214 330 308 196 15 304 130 123 130 132 122 120 122 120 111 104 99 90 80 89 101 121 123 137 167 165 158 241 245 217 243 236 287 289 280 270 271 272 269 254 239 234 237 223 213